TGW284 WMKK-WIMM

Flight info

Callsign TGW284
Flight time 0h 43m
Altitude 28000
Route PUGER2D PUGER
Aircraft B789/H-SDE1E2E3FGHIJ2J3J4J5M1RWXY/LB1D1

Departure

Time 2026-04-24 09:29
Airport Kuala Lumpur International Airport (WMKK)

Arrival

Time 2026-04-24 10:12
Airport Kualanamu International Airport (WIMM)
Time Latitude Longitude Altitude Speed Heading
2026-04-24 09:29 2.87575 101.66181 5516 ft 272 kts 342°
2026-04-24 09:29 2.89364 101.65535 6285 ft 275 kts 342°
2026-04-24 09:29 2.91181 101.64879 6977 ft 279 kts 342°
2026-04-24 09:29 2.93032 101.64220 7613 ft 286 kts 342°
2026-04-24 09:30 2.94909 101.63517 8213 ft 293 kts 335°
2026-04-24 09:30 2.96700 101.61453 8990 ft 304 kts 294°
2026-04-24 09:30 2.97120 101.60120 9518 ft 303 kts 286°
2026-04-24 09:30 2.97650 101.58085 10213 ft 302 kts 284°
2026-04-24 09:31 2.98218 101.56040 10753 ft 308 kts 287°
2026-04-24 09:31 2.98916 101.53997 11312 ft 313 kts 289°
2026-04-24 09:31 2.99643 101.51932 11899 ft 317 kts 289°
2026-04-24 09:31 3.00336 101.49830 12475 ft 320 kts 287°
2026-04-24 09:32 3.01019 101.47699 13061 ft 323 kts 287°
2026-04-24 09:32 3.01722 101.45550 13634 ft 327 kts 288°
2026-04-24 09:32 3.02443 101.43381 14149 ft 330 kts 288°
2026-04-24 09:32 3.03168 101.41193 14665 ft 333 kts 288°
2026-04-24 09:33 3.03894 101.38982 15173 ft 336 kts 288°
2026-04-24 09:33 3.04626 101.36753 15694 ft 339 kts 288°
2026-04-24 09:33 3.05368 101.34501 16197 ft 342 kts 288°
2026-04-24 09:33 3.06115 101.32232 16682 ft 345 kts 288°
2026-04-24 09:34 3.06866 101.29947 17164 ft 348 kts 288°
2026-04-24 09:34 3.07627 101.27640 17642 ft 350 kts 288°
2026-04-24 09:34 3.08392 101.25316 18107 ft 353 kts 288°
2026-04-24 09:34 3.09097 101.23173 18468 ft 355 kts 288°
2026-04-24 09:35 3.09872 101.20818 18877 ft 358 kts 288°
2026-04-24 09:35 3.10651 101.18450 19285 ft 360 kts 288°
2026-04-24 09:35 3.11436 101.16064 19695 ft 362 kts 288°
2026-04-24 09:35 3.12232 101.13647 20047 ft 372 kts 288°
2026-04-24 09:36 3.13060 101.11129 20293 ft 389 kts 288°
2026-04-24 09:36 3.13911 101.08539 20503 ft 406 kts 288°
2026-04-24 09:36 3.14812 101.05803 20700 ft 422 kts 288°
2026-04-24 09:36 3.15746 101.02962 20999 ft 434 kts 288°
2026-04-24 09:37 3.16696 101.00074 21546 ft 439 kts 288°
2026-04-24 09:37 3.17651 100.97171 22233 ft 440 kts 288°
2026-04-24 09:37 3.18605 100.94268 22987 ft 439 kts 288°
2026-04-24 09:37 3.19557 100.91371 23693 ft 438 kts 288°
2026-04-24 09:38 3.20506 100.88484 24340 ft 436 kts 288°
2026-04-24 09:38 3.21452 100.85606 24987 ft 435 kts 288°
2026-04-24 09:38 3.22395 100.82737 25647 ft 433 kts 287°
2026-04-24 09:38 3.23335 100.79878 26303 ft 432 kts 287°
2026-04-24 09:39 3.24270 100.77031 26950 ft 431 kts 287°
2026-04-24 09:39 3.25208 100.74177 27470 ft 433 kts 287°
2026-04-24 09:39 3.26153 100.71299 27827 ft 436 kts 287°
2026-04-24 09:39 3.27099 100.68421 27894 ft 435 kts 287°
2026-04-24 09:40 3.28038 100.65563 27786 ft 429 kts 287°
2026-04-24 09:40 3.28962 100.62749 27786 ft 423 kts 287°
2026-04-24 09:40 3.29874 100.59970 27784 ft 424 kts 287°
2026-04-24 09:40 3.30796 100.57161 27783 ft 425 kts 287°
2026-04-24 09:41 3.31717 100.54356 27792 ft 425 kts 287°
2026-04-24 09:41 3.32591 100.51554 27742 ft 416 kts 283°
2026-04-24 09:41 3.32866 100.48710 27663 ft 411 kts 266°
2026-04-24 09:41 3.32379 100.45878 27640 ft 418 kts 253°
2026-04-24 09:42 3.31475 100.43099 27654 ft 421 kts 249°
2026-04-24 09:42 3.30481 100.40344 27678 ft 421 kts 249°
2026-04-24 09:42 3.29641 100.37562 27657 ft 411 kts 254°
2026-04-24 09:42 3.29031 100.34791 27645 ft 408 kts 257°
2026-04-24 09:43 3.28423 100.32004 27654 ft 413 kts 255°
2026-04-24 09:43 3.27677 100.29198 27671 ft 421 kts 253°
2026-04-24 09:43 3.26892 100.26373 27679 ft 419 kts 253°
2026-04-24 09:43 3.26195 100.23627 27661 ft 407 kts 255°
2026-04-24 09:44 3.25522 100.20862 27661 ft 414 kts 255°
2026-04-24 09:44 3.24803 100.18035 27675 ft 422 kts 254°
2026-04-24 09:44 3.24065 100.15212 27668 ft 413 kts 254°
2026-04-24 09:44 3.23356 100.12457 27653 ft 408 kts 254°
2026-04-24 09:45 3.22650 100.09674 27673 ft 418 kts 254°
2026-04-24 09:45 3.21926 100.06832 27681 ft 423 kts 254°
2026-04-24 09:45 3.21202 100.04007 27667 ft 412 kts 254°
2026-04-24 09:45 3.20499 100.01259 27651 ft 406 kts 254°
2026-04-24 09:46 3.19787 99.98486 27667 ft 417 kts 254°
2026-04-24 09:46 3.19061 99.95650 27676 ft 422 kts 254°
2026-04-24 09:46 3.18348 99.92853 27659 ft 408 kts 254°
2026-04-24 09:46 3.17647 99.90112 27647 ft 408 kts 254°
2026-04-24 09:47 3.16951 99.87400 27626 ft 399 kts 254°
2026-04-24 09:47 3.16249 99.84666 27642 ft 413 kts 254°
2026-04-24 09:47 3.15522 99.81828 27672 ft 429 kts 254°
2026-04-24 09:47 3.14769 99.78886 27705 ft 444 kts 255°
2026-04-24 09:48 3.13991 99.75846 27742 ft 455 kts 255°
2026-04-24 09:48 3.13225 99.72849 27731 ft 435 kts 255°
2026-04-24 09:48 3.12490 99.69975 27709 ft 417 kts 255°
2026-04-24 09:48 3.11782 99.67215 27678 ft 405 kts 255°
2026-04-24 09:49 3.11076 99.64468 27530 ft 414 kts 255°
2026-04-24 09:49 3.10350 99.61643 27035 ft 422 kts 255°
2026-04-24 09:49 3.09626 99.58810 26507 ft 418 kts 255°
2026-04-24 09:49 3.08908 99.56005 25967 ft 415 kts 255°
2026-04-24 09:50 3.08190 99.53207 25431 ft 415 kts 255°
2026-04-24 09:50 3.07470 99.50405 24888 ft 417 kts 255°
2026-04-24 09:50 3.06747 99.47583 24316 ft 420 kts 255°
2026-04-24 09:50 3.06028 99.44779 23741 ft 423 kts 255°
2026-04-24 09:51 3.05286 99.41884 23063 ft 425 kts 255°
2026-04-24 09:51 3.04550 99.39015 22347 ft 426 kts 255°
2026-04-24 09:51 3.03814 99.36149 21662 ft 426 kts 255°
2026-04-24 09:51 3.03088 99.33318 20980 ft 427 kts 255°
2026-04-24 09:52 3.02346 99.30429 20276 ft 430 kts 255°
2026-04-24 09:52 3.01600 99.27521 19535 ft 433 kts 255°
2026-04-24 09:52 3.00848 99.24592 18779 ft 436 kts 254°
2026-04-24 09:52 3.00092 99.21649 17970 ft 438 kts 254°
2026-04-24 09:53 2.99394 99.18698 17077 ft 433 kts 259°
2026-04-24 09:53 2.99288 99.15712 16353 ft 427 kts 274°
2026-04-24 09:53 2.99845 99.12821 15623 ft 421 kts 287°
2026-04-24 09:53 3.01005 99.10164 14884 ft 415 kts 300°
2026-04-24 09:54 3.02688 99.07852 14151 ft 409 kts 312°
2026-04-24 09:54 3.04683 99.05858 13427 ft 403 kts 316°
2026-04-24 09:54 3.06617 99.03961 12680 ft 387 kts 316°
2026-04-24 09:54 3.08525 99.02066 11955 ft 384 kts 315°
2026-04-24 09:55 3.10400 99.00186 11294 ft 378 kts 315°
2026-04-24 09:55 3.12229 98.98359 10967 ft 363 kts 315°
2026-04-24 09:55 3.13973 98.96628 10821 ft 343 kts 315°
2026-04-24 09:55 3.15627 98.94984 10677 ft 326 kts 315°
2026-04-24 09:56 3.17148 98.93467 10520 ft 292 kts 315°
2026-04-24 09:56 3.18558 98.92061 10369 ft 280 kts 315°
2026-04-24 09:56 3.19922 98.90704 10091 ft 273 kts 315°
2026-04-24 09:56 3.21257 98.89376 9813 ft 267 kts 315°
2026-04-24 09:57 3.22561 98.88078 9540 ft 263 kts 315°
2026-04-24 09:57 3.23858 98.86784 9270 ft 264 kts 315°
2026-04-24 09:57 3.25157 98.85490 9018 ft 264 kts 315°
2026-04-24 09:57 3.26427 98.84227 8720 ft 251 kts 315°
2026-04-24 09:58 3.27660 98.82999 8548 ft 259 kts 315°
2026-04-24 09:58 3.28980 98.81684 8088 ft 273 kts 315°
2026-04-24 09:58 3.30345 98.80324 7543 ft 278 kts 315°
2026-04-24 09:58 3.31698 98.79067 7463 ft 253 kts 320°
2026-04-24 09:59 3.32930 98.77899 7317 ft 236 kts 315°
2026-04-24 09:59 3.34064 98.76748 7128 ft 230 kts 315°
2026-04-24 09:59 3.35020 98.75474 6636 ft 233 kts 294°
2026-04-24 09:59 3.35425 98.73918 6255 ft 229 kts 282°
2026-04-24 10:00 3.35745 98.72375 5897 ft 224 kts 282°
2026-04-24 10:00 3.36060 98.70863 5530 ft 220 kts 282°
2026-04-24 10:00 3.36374 98.69374 5147 ft 218 kts 282°
2026-04-24 10:00 3.36708 98.67894 4703 ft 218 kts 284°
2026-04-24 10:01 3.37446 98.66578 4235 ft 218 kts 310°
2026-04-24 10:01 3.38659 98.65733 4013 ft 212 kts 337°
2026-04-24 10:01 3.40112 98.65512 3950 ft 212 kts
2026-04-24 10:01 3.41496 98.65941 3931 ft 205 kts 30°
2026-04-24 10:02 3.42736 98.66732 3929 ft 231 kts 30°
2026-04-24 10:02 3.44241 98.67588 4004 ft 253 kts 35°
2026-04-24 10:02 3.45478 98.68682 4035 ft 224 kts 46°
2026-04-24 10:02 3.46261 98.69929 3903 ft 205 kts 70°
2026-04-24 10:03 3.46397 98.71295 3689 ft 193 kts 97°
2026-04-24 10:03 3.45887 98.72499 3556 ft 188 kts 125°
2026-04-24 10:03 3.44988 98.73442 3538 ft 187 kts 136°
2026-04-24 10:03 3.44065 98.74362 3530 ft 188 kts 137°
2026-04-24 10:04 3.42939 98.75033 3450 ft 190 kts 158°
2026-04-24 10:04 3.41686 98.75423 3451 ft 190 kts 162°
2026-04-24 10:04 3.40399 98.75716 3414 ft 191 kts 175°
2026-04-24 10:04 3.39171 98.75206 3234 ft 199 kts 221°
2026-04-24 10:05 3.38627 98.73963 3080 ft 199 kts 264°
2026-04-24 10:05 3.39075 98.72705 2866 ft 193 kts 312°
2026-04-24 10:05 3.40174 98.72028 2954 ft 183 kts 336°
2026-04-24 10:05 3.41339 98.71443 2987 ft 193 kts 335°
2026-04-24 10:06 3.42497 98.70846 2806 ft 187 kts 336°
2026-04-24 10:06 3.45064 98.70066 2098 ft 194 kts 352°
2026-04-24 10:06 3.46382 98.69927 1897 ft 184 kts
2026-04-24 10:07 3.47442 98.70438 1702 ft 169 kts 51°
2026-04-24 10:07 3.48055 98.71421 1890 ft 175 kts 58°
2026-04-24 10:07 3.48963 98.72454 2005 ft 214 kts 47°
2026-04-24 10:07 3.49991 98.73426 1959 ft 190 kts 45°
2026-04-24 10:08 3.50951 98.74256 1953 ft 174 kts 44°
2026-04-24 10:08 3.51806 98.75075 1939 ft 166 kts 47°
2026-04-24 10:08 3.52341 98.75608 1941 ft 163 kts 48°
2026-04-24 10:08 3.53144 98.76420 1961 ft 164 kts 48°
2026-04-24 10:09 3.53951 98.77218 1965 ft 163 kts 47°
2026-04-24 10:09 3.54745 98.78016 1961 ft 158 kts 47°
2026-04-24 10:09 3.55529 98.78804 1899 ft 163 kts 47°
2026-04-24 10:09 3.56304 98.79575 1682 ft 150 kts 47°
2026-04-24 10:10 3.57022 98.80295 1501 ft 145 kts 47°
2026-04-24 10:10 3.57735 98.81008 1287 ft 142 kts 47°
2026-04-24 10:10 3.58656 98.81928 1102 ft 144 kts 48°
2026-04-24 10:10 3.59126 98.82405 963 ft 143 kts 46°
2026-04-24 10:11 3.59799 98.83070 809 ft 135 kts 46°
2026-04-24 10:11 3.60481 98.83759 620 ft 137 kts 45°
2026-04-24 10:11 3.61138 98.84398 471 ft 134 kts 43°
2026-04-24 10:11 3.61795 98.85075 265 ft 133 kts 45°
2026-04-24 10:12 3.62443 98.85714 123 ft 132 kts 45°
2026-04-24 10:12 3.63086 98.86361 43 ft 122 kts 45°
2026-04-24 10:12 3.63499 98.86774 41 ft 49 kts 45°
2026-04-24 10:12 3.63726 98.86998 43 ft 44 kts 44°
2026-04-24 10:13 3.63938 98.87210 42 ft 39 kts 45°
2026-04-24 10:13 3.64086 98.87421 40 ft 33 kts 71°
2026-04-24 10:13 3.64107 98.87496 41 ft 0 kts 76°
2026-04-24 10:14 3.64108 98.87498 41 ft 1 kts 76°
2026-04-24 10:14 3.64112 98.87516 41 ft 4 kts 77°
2026-04-24 10:14 3.64117 98.87545 42 ft 5 kts 77°
2026-04-24 10:14 3.64133 98.87601 43 ft 11 kts 70°
2026-04-24 10:15 3.64178 98.87691 44 ft 17 kts 56°
2026-04-24 10:15 3.64256 98.87783 44 ft 18 kts 46°
2026-04-24 10:15 3.64345 98.87871 44 ft 18 kts 44°
2026-04-24 10:15 3.64415 98.87955 45 ft 10 kts 79°
2026-04-24 10:16 3.64390 98.88018 45 ft 12 kts 131°
2026-04-24 10:16 3.64321 98.88085 45 ft 15 kts 135°
2026-04-24 10:16 3.64243 98.88163 46 ft 17 kts 134°
2026-04-24 10:16 3.64153 98.88188 46 ft 13 kts 209°
2026-04-24 10:17 3.64085 98.88121 46 ft 15 kts 226°
2026-04-24 10:17 3.64006 98.88042 46 ft 17 kts 224°
2026-04-24 10:17 3.63932 98.87973 46 ft 11 kts 208°
2026-04-24 10:17 3.63869 98.87978 46 ft 9 kts 147°
2026-04-24 10:18 3.63819 98.88026 44 ft 11 kts 134°
2026-04-24 10:18 3.63772 98.88050 46 ft 4 kts 195°
2026-04-24 10:18 3.63745 98.88031 46 ft 6 kts 223°
2026-04-24 10:18 3.63721 98.88007 46 ft 0 kts 225°